Home   Weather   Catania   Past weeks
Flag for Italy

Past Weather in Catania, Italy — Yesterday and Last 2 Weeks

Now
70 °F

Scattered clouds.


Feels Like: 70 °F
Forecast: 77 / 61 °F
Wind: 6 mph from Southwest

Location: Catania / Fontanarossa

Current Time: Oct 23, 2019 at 10:59:13 am

Latest Report: Oct 23, 2019 at 10:20 am


Visibility: N/A

Pressure: 30.12 "Hg

Humidity: 69%

Dew Point: 59 °F

Location of CataniaLocation

Past Weather in Catania — Graph

°F

Catania Temperature Yesterday

Maximum temperature yesterday: 77 °F (at 12:50 pm)
Minimum temperature yesterday: 57 °F (at 4:20 am)
Average temperature yesterday: 67 °F

High & Low Weather Summary for the Past Weeks

 TemperatureHumidityPressure
High82 °F (Oct 15, 1:50 pm)100% (Oct 11, 12:50 am)30.24 "Hg (Oct 11, 12:50 am)
Low55 °F (Oct 18, 3:20 am)41% (Oct 17, 2:50 pm)29.80 "Hg (Oct 8, 9:20 am)
Average70 °F78%30.10 "Hg
* Reported Oct 8 9:20 am — Oct 23 9:20 am, Catania. Weather by CustomWeather, © 2019

Note: Actual official high and low records may vary slightly from our data, if they occured in-between our weather recording intervals... More about our weather records

Advertising

Catania Weather History for the Previous 24 Hours

Scroll right to see more
 ConditionsComfort  
Time TempWeatherWind HumidityBarometerVisibility
9:20 am
Wed, Oct 23
63 °FSunny.6 mph83%30.12 "Hg10 mi
8:50 am61 °FSunny.5 mph88%30.12 "Hg10 mi
8:20 am57 °FSunny.6 mph88%30.12 "Hg10 mi
7:50 am55 °FSunny.6 mph94%30.09 "Hg10 mi
7:20 am55 °FPassing clouds.3 mph88%30.09 "HgN/A
6:50 am55 °FPassing clouds.3 mph94%30.09 "HgN/A
6:20 am55 °FClear.6 mph94%30.09 "Hg10 mi
5:50 am55 °FClear.3 mph94%30.09 "Hg10 mi
4:50 am55 °FClear.5 mph94%30.09 "Hg10 mi
4:20 am55 °FClear.3 mph100%30.09 "Hg10 mi
3:50 am57 °FClear.7 mph94%30.12 "Hg10 mi
3:20 am57 °FClear.6 mph94%30.12 "Hg10 mi
2:50 am57 °FClear.5 mph100%30.12 "Hg10 mi
2:20 am59 °FClear.7 mph94%30.12 "Hg10 mi
1:50 am61 °FPassing clouds.3 mph94%30.12 "HgN/A
1:20 am61 °FPassing clouds.6 mph94%30.12 "HgN/A
12:50 am61 °FPassing clouds.6 mph100%30.12 "HgN/A
12:20 am63 °FPassing clouds.8 mph94%30.12 "HgN/A
11:50 pm
Tue, Oct 22
66 °FPassing clouds.5 mph78%30.12 "HgN/A
11:20 pm68 °FPassing clouds.6 mph83%30.12 "HgN/A
10:50 pm66 °FPassing clouds.3 mph88%30.12 "HgN/A
10:20 pm68 °FClear.1 mph83%30.12 "Hg10 mi
9:50 pm70 °FClear.2 mph83%30.12 "Hg10 mi
9:20 pm68 °FClear.2 mph88%30.12 "Hg10 mi
8:50 pm68 °FClear.3 mph83%30.12 "Hg10 mi
8:20 pm68 °FClear.3 mph83%30.12 "Hg10 mi
7:50 pm70 °FClear.3 mph83%30.12 "Hg10 mi
7:20 pm70 °FClear.5 mph83%30.12 "Hg10 mi
6:50 pm72 °FClear.5 mph78%30.12 "Hg10 mi
6:20 pm72 °FClear.7 mph78%30.12 "Hg10 mi
5:50 pm73 °FSunny.8 mph74%30.12 "Hg10 mi
5:20 pm73 °FSunny.8 mph74%30.09 "Hg10 mi
4:50 pm75 °FSunny.8 mph69%30.12 "Hg10 mi
4:20 pm75 °FPassing clouds.8 mph69%30.12 "HgN/A
3:50 pm75 °FPassing clouds.9 mph69%30.12 "HgN/A
3:20 pm75 °FSunny.10 mph69%30.12 "Hg10 mi
2:50 pm75 °FPassing clouds.10 mph65%30.12 "HgN/A
2:20 pm75 °FPassing clouds.9 mph65%30.12 "HgN/A
1:50 pm77 °FPassing clouds.8 mph61%30.12 "HgN/A
1:20 pm77 °FSunny.8 mph61%30.15 "Hg10 mi
12:50 pm77 °FPassing clouds.8 mph61%30.15 "HgN/A
12:20 pm75 °FPassing clouds.8 mph65%30.15 "HgN/A
11:50 am75 °FPassing clouds.7 mph65%30.18 "HgN/A
11:20 am75 °FPassing clouds.3 mph65%30.18 "HgN/A
10:50 am73 °FPassing clouds.3 mph69%30.18 "HgN/A
10:20 am72 °FPassing clouds.6 mph69%30.18 "HgN/A
Weather by CustomWeather, © 2019

See weather overview